DW0000 Weather Reports


time (UTC)temp
F
wind
direction
speed
knots
gust
knots
rain 1hr
in
rain 24hr
in
rain mn
in
humidity
%
barometer
mb
20220124113458 62 98 8.7 15.6 0.00 0.25 0.00 92 1012.4
20220124112959 62 99 8.7 13.0 0.00 0.25 0.00 91 1012.4
20220124112458 62 97 11.3 14.8 0.00 0.25 0.00 90 1012.4
20220124111959 63 97 9.6 15.6 0.00 0.25 0.00 88 1012.4
20220124111458 63 104 8.7 13.0 0.00 0.25 0.00 87 1012.5
20220124105959 62 104 8.7 13.0 0.00 0.25 0.00 85 1012.4
20220124105458 62 95 10.4 13.0 0.00 0.25 0.25 86 1012.4
20220124104959 62 99 10.4 14.8 0.00 0.25 0.25 86 1012.5
20220124104458 62 96 8.7 13.0 0.00 0.25 0.25 87 1012.6
20220124103458 62 100 7.8 10.4 0.00 0.25 0.25 88 1012.8
20220124102959 62 97 6.1 12.2 0.00 0.25 0.25 89 1012.7
20220124102500 62 112 7.8 11.3 0.00 0.25 0.25 89 1012.6
20220124100959 62 102 7.8 11.3 0.00 0.25 0.25 89 1012.9
20220124095959 62 94 6.1 11.3 0.00 0.25 0.25 91 1013.0
20220124095457 62 98 8.7 12.2 0.00 0.25 0.25 91 1013.0
20220124094959 62 102 7.8 11.3 0.00 0.25 0.25 92 1013.1
20220124093458 62 100 8.7 12.2 0.00 0.25 0.25 92 1013.1
20220124091958 62 101 7.8 13.9 0.00 0.25 0.25 91 1013.1
20220124090458 62 103 9.6 14.8 0.00 0.25 0.25 91 1012.8
20220124085959 62 101 9.6 14.8 0.00 0.25 0.25 92 1012.7
20220124084959 62 102 8.7 15.6 0.00 0.25 0.25 92 1012.7
20220124083958 62 100 11.3 13.9 0.00 0.25 0.25 92 1012.5
20220124083458 62 97 10.4 13.9 0.00 0.25 0.25 92 1012.6
20220124082458 62 91 9.6 14.8 0.00 0.25 0.25 91 1012.7
20220124081457 63 106 1.7 10.4 0.00 0.25 0.25 89 1012.8
20220124080958 64 111 2.6 13.9 0.00 0.25 0.25 88 1012.8
20220124080458 64 63 7.0 14.8 0.00 0.25 0.25 86 1012.7
20220124075959 65 28 7.0 17.4 0.00 0.25 0.25 84 1012.7
20220124075458 66 14 10.4 17.4 0.00 0.25 0.25 79 1012.7
20220124074959 66 71 4.3 17.4 0.00 0.25 0.25 75 1012.7
20220124074458 66 113 6.1 11.3 0.00 0.25 0.25 75 1012.5
20220124073959 66 116 4.3 10.4 0.00 0.25 0.25 74 1012.4
20220124073457 66 104 6.1 10.4 0.00 0.25 0.25 73 1012.3
20220124072959 66 103 5.2 10.4 0.00 0.25 0.25 74 1012.3
20220124072457 66 104 6.1 14.8 0.00 0.25 0.25 73 1012.2
20220124071458 66 88 7.8 13.0 0.00 0.25 0.25 73 1012.1
20220124065959 66 100 7.8 13.9 0.00 0.25 0.25 72 1012.0
20220124064959 66 109 7.8 12.2 0.00 0.25 0.25 74 1011.9
20220124064458 66 99 10.4 15.6 0.00 0.25 0.25 75 1011.8
20220124064002 66 108 6.1 11.3 0.00 0.25 0.25 78 1012.0
20220124063502 66 102 6.1 11.3 0.00 0.25 0.25 79 1012.2
20220124063000 66 122 4.3 7.8 0.00 0.25 0.25 80 1012.3
20220124062458 66 103 5.2 13.9 0.00 0.25 0.25 78 1012.3
20220124061959 66 112 6.1 12.2 0.00 0.25 0.25 79 1012.0
20220124061458 66 101 6.1 12.2 0.00 0.25 0.25 83 1012.0
20220124060959 66 114 5.2 10.4 0.00 0.25 0.25 83 1012.2
20220124060458 66 129 2.6 8.7 0.00 0.25 0.25 82 1012.3
20220124055000 66 122 4.3 11.3 0.00 0.25 0.25 82 1012.3
20220124054458 66 98 2.6 11.3 0.00 0.25 0.25 83 1012.2
20220124053959 66 101 4.3 12.2 0.00 0.25 0.25 84 1012.1
20220124053458 66 123 5.2 11.3 0.00 0.25 0.25 84 1012.1
20220124052959 66 101 6.1 11.3 0.00 0.25 0.25 82 1012.1
20220124051959 66 100 8.7 13.0 0.00 0.25 0.25 77 1012.0
20220124050958 66 102 8.7 17.4 0.00 0.25 0.25 81 1012.0
20220124050458 66 89 10.4 14.8 0.00 0.25 0.25 80 1012.2
20220124045459 66 114 5.2 8.7 0.00 0.25 0.25 81 1012.3
20220124044458 67 61 8.7 13.9 0.00 0.25 0.25 84 1012.6
20220124044003 68 48 9.6 19.1 0.00 0.25 0.25 81 1012.4
20220124043457 69 74 4.3 11.3 0.00 0.25 0.25 76 1012.4
20220124042959 69 57 3.5 10.4 0.00 0.25 0.25 75 1012.4
20220124042457 69 106 1.7 12.2 0.00 0.25 0.25 75 1012.4
20220124042000 69 108 2.6 7.8 0.01 0.25 0.25 74 1012.4
20220124041458 69 114 3.5 6.1 0.01 0.25 0.25 74 1012.4
20220124040958 69 127 3.5 8.7 0.01 0.25 0.25 74 1012.4
20220124035958 69 106 3.5 14.8 0.01 0.25 0.25 75 1012.5
20220124034457 69 86 5.2 12.2 0.01 0.25 0.25 73 1012.6
20220124033958 69 122 5.2 12.2 0.01 0.25 0.25 72 1012.7
20220124032959 69 106 5.2 13.9 0.01 0.25 0.25 72 1012.8
20220124031457 69 170 3.5 8.7 0.00 0.23 0.23 73 1013.0
20220124030458 69 106 4.3 7.8 0.00 0.23 0.23 75 1013.0
20220124024959 69 100 4.3 10.4 0.00 0.23 0.23 73 1013.1
20220124024457 69 85 4.3 13.0 0.00 0.23 0.23 73 1013.2
20220124023958 69 88 4.3 12.2 0.00 0.23 0.23 72 1013.1
20220124022457 68 88 4.3 10.4 0.00 0.23 0.23 76 1013.3
20220124021957 68 99 2.6 11.3 0.00 0.23 0.23 77 1013.4
20220124021458 68 113 4.3 10.4 0.00 0.23 0.23 77 1013.4
20220124020959 67 143 2.6 10.4 0.00 0.23 0.23 76 1013.4
20220124020500 67 123 4.3 10.4 0.00 0.23 0.23 78 1013.5
20220124015958 67 70 3.5 8.7 0.00 0.23 0.23 81 1013.6
20220124014958 68 79 5.2 10.4 0.00 0.23 0.23 82 1013.6
20220124014457 68 117 5.2 10.4 0.00 0.23 0.23 83 1013.6
20220124013958 68 97 7.0 13.9 0.00 0.23 0.23 84 1013.5
20220124013457 68 95 7.8 13.0 0.00 0.23 0.23 84 1013.4
20220124012958 68 121 4.3 10.4 0.00 0.23 0.23 83 1013.5
20220124012457 68 106 4.3 12.2 0.00 0.23 0.23 83 1013.6
20220124011958 68 92 4.3 12.2 0.00 0.23 0.23 84 1013.7
20220124011457 68 106 2.6 10.4 0.00 0.23 0.23 86 1013.6
20220124010958 67 91 6.1 11.3 0.00 0.23 0.23 86 1013.5
20220124005457 67 109 5.2 8.7 0.00 0.23 0.23 85 1013.5
20220124003958 67 102 6.1 12.2 0.00 0.23 0.23 86 1013.7
20220124002958 67 109 5.2 10.4 0.00 0.23 0.23 86 1013.8
20220124001958 67 95 6.1 10.4 0.00 0.23 0.23 88 1013.9
20220124001457 67 107 5.2 10.4 0.00 0.23 0.23 88 1013.9
20220124000958 67 95 6.1 10.4 0.00 0.23 0.23 88 1014.0
20220124000457 67 102 7.0 11.3 0.00 0.23 0.23 89 1014.0
20220123235458 66 96 7.0 12.2 0.00 0.23 0.23 89 1014.0
20220123234000 67 95 6.1 10.4 0.00 0.23 0.23 94 1013.9
20220123233457 68 91 6.1 11.3 0.00 0.23 0.23 95 1013.7
20220123231958 68 98 6.1 10.4 0.00 0.23 0.23 97 1013.8
20220123231458 68 100 7.8 11.3 0.00 0.23 0.23 97 1013.8
20220123230958 68 99 5.2 10.4 0.00 0.23 0.23 97 1013.9
20220123225959 67 99 5.2 10.4 0.01 0.23 0.23 98 1014.0
20220123225457 67 91 6.1 10.4 0.01 0.23 0.23 98 1014.1
20220123224958 67 96 7.0 10.4 0.01 0.23 0.23 98 1014.1
20220123223957 67 102 4.3 7.8 0.02 0.23 0.23 98 1014.1
20220123223457 67 111 3.5 7.0 0.04 0.23 0.23 98 1014.2
20220123222958 67 105 4.3 7.0 0.05 0.23 0.23 98 1014.2
20220123222457 67 111 2.6 7.0 0.05 0.23 0.23 97 1014.2
20220123221958 67 131 3.5 7.0 0.05 0.23 0.23 97 1014.3
20220123221457 67 132 2.6 7.0 0.06 0.23 0.23 97 1014.3
20220123220957 66 108 4.3 7.8 0.06 0.23 0.23 97 1014.3
20220123220457 66 114 3.5 8.7 0.06 0.23 0.23 97 1014.4
20220123215957 66 103 5.2 8.7 0.05 0.22 0.22 97 1014.4
20220123214957 66 106 2.6 4.3 0.06 0.22 0.22 97 1014.4
20220123213958 66 119 2.6 5.2 0.05 0.21 0.21 97 1014.4
20220123213457 66 121 2.6 7.0 0.04 0.20 0.20 97 1014.4
20220123212958 66 114 1.7 7.0 0.02 0.19 0.19 97 1014.4
20220123212457 66 100 2.6 7.0 0.04 0.19 0.19 97 1014.3
20220123211958 66 116 2.6 5.2 0.04 0.19 0.19 97 1014.4
20220123211457 66 116 2.6 5.2 0.02 0.18 0.18 96 1014.4
20220123210958 66 124 1.7 5.2 0.02 0.18 0.18 96 1014.5
20220123204457 65 108 1.7 2.6 0.05 0.16 0.16 96 1014.6
20220123203957 65 118 1.7 5.2 0.05 0.16 0.16 96 1014.7
20220123203457 65 105 2.6 5.2 0.05 0.16 0.16 96 1014.7
20220123202958 65 109 1.7 5.2 0.06 0.16 0.16 96 1014.7
20220123201957 65 110 1.7 6.1 0.05 0.15 0.15 96 1014.7
20220123201457 65 103 4.3 7.0 0.06 0.15 0.15 96 1014.7
20220123200957 65 113 1.7 2.6 0.06 0.15 0.15 96 1014.8
20220123200457 65 113 1.7 2.6 0.06 0.14 0.14 95 1014.7
20220123195958 65 111 1.7 2.6 0.06 0.14 0.14 95 1014.8
20220123195457 64 115 1.7 2.6 0.06 0.13 0.13 95 1014.8
20220123194456 64 115 1.7 2.6 0.06 0.12 0.12 95 1014.8
20220123193958 64 115 1.7 2.6 0.07 0.12 0.12 94 1014.7
20220123193456 64 117 2.6 2.6 0.07 0.12 0.12 94 1014.7
20220123192958 64 135 1.7 2.6 0.07 0.11 0.11 94 1014.7
20220123192457 63 136 2.6 4.3 0.07 0.11 0.11 94 1014.7
20220123191957 63 135 2.6 2.6 0.07 0.11 0.11 93 1014.6
20220123190957 63 51 1.7 2.6 0.06 0.09 0.09 93 1014.6
20220123190457 63 114 0.9 5.2 0.05 0.08 0.08 93 1014.6
20220123185457 63 57 0.9 4.3 0.04 0.07 0.07 93 1014.5
20220123184957 63 30 2.6 6.1 0.02 0.06 0.06 93 1014.4
20220123184457 63 46 3.5 7.8 0.02 0.06 0.06 93 1014.4
20220123183957 63 73 2.6 5.2 0.01 0.05 0.05 94 1014.4
20220123183457 64 69 1.7 5.2 0.01 0.05 0.05 94 1014.4
20220123182959 64 55 2.6 4.3 0.00 0.04 0.04 94 1014.3
20220123181957 64 29 2.6 7.0 0.00 0.04 0.04 94 1014.4
20220123180957 64 49 1.7 4.3 0.00 0.04 0.04 94 1014.3
20220123180457 64 83 0.9 2.6 0.01 0.04 0.04 94 1014.4
20220123175957 64 109 0.0 0.0 0.01 0.04 0.04 94 1014.3
20220123175457 64 109 0.0 0.0 0.01 0.04 0.04 94 1014.3
20220123174458 64 109 0.0 0.0 0.01 0.04 0.04 94 1014.2
20220123173958 64 109 0.0 0.9 0.01 0.04 0.04 94 1014.1
20220123172957 64 109 0.9 1.7 0.01 0.04 0.04 94 1014.1
20220123172456 63 109 0.0 1.7 0.01 0.04 0.04 94 1014.0
20220123171957 63 110 0.0 1.7 0.01 0.04 0.04 94 1013.9
20220123171456 63 110 0.0 0.9 0.01 0.04 0.04 94 1013.8
20220123170957 63 110 0.0 2.6 0.01 0.04 0.04 93 1013.8
20220123170456 63 111 2.6 2.6 0.00 0.02 0.02 93 1013.7
20220123164957 63 101 1.7 2.6 0.01 0.02 0.02 92 1013.6
20220123164456 63 101 1.7 2.6 0.01 0.02 0.02 92 1013.6
20220123163957 63 99 1.7 5.2 0.01 0.02 0.02 92 1013.5
20220123163457 63 97 3.5 6.1 0.01 0.02 0.02 92 1013.5
20220123162957 63 92 4.3 6.1 0.02 0.02 0.02 92 1013.5
20220123162456 63 92 2.6 5.2 0.02 0.02 0.02 92 1013.3
20220123161456 63 99 4.3 5.2 0.02 0.02 0.02 92 1013.2
20220123160457 63 91 2.6 2.6 0.02 0.02 0.02 92 1013.2
20220123155457 63 100 2.6 6.1 0.02 0.02 0.02 91 1013.1
20220123152457 63 131 1.7 2.6 0.00 0.00 0.00 90 1013.2
20220123151957 64 137 1.7 2.6 0.00 0.00 0.00 90 1013.3
20220123151457 64 137 2.6 4.3 0.00 0.00 0.00 90 1013.3
20220123150957 63 109 1.7 2.6 0.00 0.00 0.00 90 1013.4
20220123150457 64 109 1.7 2.6 0.00 0.00 0.00 89 1013.5
20220123145958 64 105 1.7 2.6 0.00 0.00 0.00 89 1013.5
20220123145456 64 105 2.6 2.6 0.00 0.00 0.00 88 1013.5
20220123143957 65 108 2.6 2.6 0.00 0.00 0.00 84 1013.6
20220123143457 65 123 1.7 2.6 0.00 0.00 0.00 84 1013.7
20220123142456 65 182 1.7 2.6 0.00 0.00 0.00 83 1013.8
20220123141959 65 183 1.7 1.7 0.00 0.00 0.00 83 1013.9
20220123140456 65 183 0.9 2.6 0.00 0.00 0.00 81 1013.9
20220123135957 65 183 1.7 2.6 0.00 0.00 0.00 80 1013.8
20220123134456 65 204 1.7 2.6 0.00 0.00 0.00 80 1014.0
20220123133957 65 204 1.7 2.6 0.00 0.00 0.00 81 1014.0
20220123132957 66 204 1.7 2.6 0.00 0.00 0.00 80 1014.1
20220123132456 66 205 1.7 2.6 0.00 0.00 0.00 80 1014.2
20220123131957 66 219 1.7 2.6 0.00 0.00 0.00 80 1014.4
20220123131456 66 219 1.7 2.6 0.00 0.00 0.00 81 1014.4
20220123130957 66 219 0.9 1.7 0.00 0.00 0.00 80 1014.5
20220123130456 66 219 0.9 2.6 0.00 0.00 0.00 80 1014.6
20220123125957 65 219 1.7 2.6 0.00 0.00 0.00 80 1014.6
20220123125456 65 220 2.6 2.6 0.00 0.00 0.00 80 1014.7
20220123123957 66 281 1.7 1.7 0.00 0.00 0.00 80 1014.8
20220123123456 66 281 0.9 1.7 0.00 0.00 0.00 80 1014.8
20220123122957 66 281 0.0 0.9 0.00 0.00 0.00 80 1014.9
20220123121957 66 281 0.0 0.9 0.00 0.00 0.00 79 1014.9
20220123121457 66 281 0.9 1.7 0.00 0.00 0.00 79 1014.8
20220123120957 66 281 0.9 1.7 0.00 0.00 0.00 79 1014.8
20220123120456 66 281 0.0 0.0 0.00 0.00 0.00 79 1014.8
20220123115957 66 281 0.0 0.9 0.00 0.00 0.00 78 1014.9
20220123115456 66 281 1.7 2.6 0.00 0.00 0.00 78 1014.9
20220123114957 66 281 1.7 5.2 0.00 0.00 0.00 78 1015.0
20220123113956 66 281 1.7 5.2 0.00 0.00 0.00 77 1014.9